ATLAS 5 CENTAUR DEB, 43952

Orbit data source: Space-Track

ATLAS 5 CENTAUR DEB, 43952 is space debris in HEO originally from a launch on Wed, 17 Sep 2014 UTC launched from the Air Force Eastern Test Range (AFETR). Debris objects in space refer to the collection of defunct objects orbiting the Earth. Examples of debris include non-operational satellites, rocket bodies, and fragments generated from explosions, collisions, or faulty payload assembly.

Loading next visibility...
Identifier
43952, 2014-055F
Orbit
HEO
Country
Flag of USUS
Related business
Flag of USUnited Launch Alliance/Lockheed Martin (US)
Manufacturer
Unknown
Mission
Spacecraft
Bus & Motor
Unknown
Mass
Unknown
Launch date (UTC)
2014-09-17 (12 years ago)
Launch vehicle
Unknown
Launch site
Air Force Eastern Test Range (AFETR)
Object type
Payload
Rocket body
Debris
Shape & HBR
Unknown shape, 1.1 m
Radar Cross Section
RCS unknown

Expand to show TLE details & history
Last TLE update: 6 days ago

TLE from 6 days ago
0 ATLAS 5 CENTAUR DEB
1 43952U 14055F   26167.19691977 -.00000392  00000-0  00000+0 0  9993
2 43952  21.3059  77.6236 5132956 288.4193  23.9359  1.97473598 56018
Epoch: 2026-06-16T04:43Z
TLE epoch observation values (Epoch: 2026-06-16T04:43:33.868Z)
Latitude
0.00013°
Longitude
102.19805°
Altitude
10,654.542 km
Speed
5.653 km/s
True Right ascension
05h 10m 14s
True Declination
0° 00' 00"
Sunlit
Object was in daylight at epoch
Visualization orbit readout
Latitude
Unknown
Longitude
Unknown
Altitude
Unknown
Speed
Unknown
Apparent Right ascension
Unknown
Apparent Declination
Unknown
Sunlit
N/A
Visualization observer readout
Local Sidereal Time
21:38:12
Azimuth
Unknown
Elevation
Unknown
Doppler factor
Unknown
Orbital elements
Apogee altitude
34,236.902 km
Perigee altitude
6,684.426 km
Semi-major axis
26,838.801 km
Eccentricity
0.5133
Inclination
21.3059°
RAAN
77.6236°
Arg. of periapsis
288.4193°
True anomaly
71.71807°
Mean anomaly
23.9359°
Eccentric anomaly
44.57792°
Mean motion
0.49363 °/min
Orbital period
729.3 mins
BSTAR
0
Loading maneuver chart data...
Computing Atmospheric mass density...

Documentation

Showing up to 5 results
|